Location: Detroit
(42.3310°N, 83.0460°W)
Time: 10:08:03
(UTC-05:00)

Vanguard 3 - All Passes

Search period start: 27 January 2023 00:00
Search period end: 06 February 2023 00:00
Orbit: 509 x 3253 km, 33.4° (Epoch: 26 January)

Date Brightness Start Highest point End Pass type
(mag) Time Alt. Az. Time Alt. Az. Time Alt. Az.
27 Jan - 02:10:36 10° W 02:28:39 49° SSW 02:44:57 10° SE visible
27 Jan - 04:28:56 10° W 04:42:02 23° SW 04:53:04 10° S visible
27 Jan - 18:22:25 10° SSE 18:28:56 17° SE 18:37:20 10° E visible
27 Jan - 20:28:51 10° SW 20:40:24 45° SSE 20:57:31 10° E visible
27 Jan - 22:39:51 10° WSW 22:54:55 63° S 23:14:27 10° E visible
28 Jan - 00:53:17 10° W 01:10:54 58° SSW 01:29:07 10° SE visible
28 Jan - 03:09:13 10° W 03:25:39 35° SW 03:40:01 10° SSE visible
28 Jan - 05:37:13 10° WSW 05:37:45 10° SW 05:38:17 10° SW visible
28 Jan - 19:15:16 10° SSW 19:24:29 32° SE 19:38:08 10° E visible
28 Jan - 21:24:35 10° WSW 21:37:26 57° SSE 21:56:10 10° E visible
28 Jan - 23:36:45 10° W 23:52:52 63° S 00:12:14 10° ESE visible
29 Jan - 01:51:06 10° W 02:08:29 46° SSW 02:25:19 10° SE visible
29 Jan - 04:09:32 10° W 04:21:59 21° SW 04:33:02 10° S visible
29 Jan - 18:03:17 10° S 18:09:26 18° SE 18:17:34 10° E visible
29 Jan - 20:10:04 10° SW 20:20:44 46° SSE 20:37:18 10° E visible
29 Jan - 22:20:56 10° WSW 22:35:00 63° S 22:54:26 10° ESE visible
30 Jan - 00:34:01 10° W 00:50:46 55° SSW 01:09:20 10° SE visible
30 Jan - 02:49:43 10° W 03:05:29 33° SW 03:20:11 10° SSE visible
30 Jan - 18:56:27 10° SSW 19:04:58 32° SE 19:17:59 10° E visible
30 Jan - 21:05:48 10° WSW 21:17:42 58° SSE 21:35:58 10° E visible
30 Jan - 23:17:43 10° W 23:32:51 61° S 23:52:16 10° ESE visible
31 Jan - 01:31:44 10° W 01:48:18 44° SSW 02:05:26 10° SE visible
31 Jan - 03:50:23 10° W 04:01:54 19° SW 04:12:37 10° S visible
31 Jan - 17:44:17 10° S 17:50:02 18° SE 17:57:47 10° E daylight
31 Jan - 19:51:22 10° SW 20:01:11 47° SSE 20:17:02 10° E visible
31 Jan - 22:02:07 10° WSW 22:15:11 62° S 22:34:18 10° ESE visible
01 Feb - 00:14:52 10° W 00:30:39 53° SSW 00:49:20 10° SE visible
01 Feb - 02:30:24 10° W 02:45:18 30° SW 03:00:02 10° SSE visible
01 Feb - 18:37:45 10° SSW 18:45:33 33° SE 18:57:48 10° E visible
01 Feb - 20:47:07 10° WSW 20:58:04 58° SSE 21:15:39 10° E visible
01 Feb - 22:58:48 10° W 23:12:54 59° S 23:32:06 10° ESE visible
02 Feb - 01:12:31 10° W 01:28:07 40° SSW 01:45:17 10° SSE visible
02 Feb - 03:31:35 10° W 03:41:47 17° SW 03:51:43 10° SSW visible
02 Feb - 17:25:26 10° S 17:30:43 19° SE 17:37:57 10° E daylight
02 Feb - 19:32:45 10° SW 19:41:44 47° SSE 19:56:43 10° E visible
02 Feb - 21:43:22 10° WSW 21:55:26 61° S 22:13:59 10° ESE visible
02 Feb - 23:55:50 10° W 00:10:34 50° SSW 00:29:06 10° SE visible
03 Feb - 02:11:16 10° W 02:25:07 27° SW 02:39:33 10° S visible
03 Feb - 18:19:07 10° SSW 18:26:13 33° SSE 18:37:38 10° E visible
03 Feb - 20:28:30 10° WSW 20:38:32 57° S 20:55:17 10° E visible
03 Feb - 22:39:57 10° W 22:53:01 56° SSW 23:11:45 10° ESE visible
04 Feb - 00:53:27 10° W 01:07:58 37° SSW 01:24:51 10° SSE visible
04 Feb - 03:13:19 10° WSW 03:21:41 14° SW 03:30:07 10° SSW visible
04 Feb - 17:06:39 10° S 17:11:30 19° SE 17:18:09 10° E daylight
04 Feb - 19:14:12 10° SW 19:22:24 47° SSE 19:36:23 10° E visible
04 Feb - 21:24:41 10° WSW 21:35:47 59° S 21:53:33 10° ESE visible
04 Feb - 23:36:54 10° W 23:50:33 46° SSW 00:08:38 10° SE visible
05 Feb - 01:52:22 10° W 02:04:59 24° SW 02:18:42 10° S night (unlit)
05 Feb - 18:00:32 10° SSW 18:07:01 33° SSE 18:17:30 10° E visible
05 Feb - 20:09:56 10° WSW 20:19:08 56° S 20:34:51 10° E visible
05 Feb - 22:21:11 10° W 22:33:13 53° SSW 22:51:14 10° SE visible
